Location: Pinon Hills
(34.4429°N, 117.6403°W)
Time: 11:34:28
(UTC-07:00)

XW-2F - Visible Passes

Search period start: 21 October 2019 00:00
Search period end: 31 October 2019 00:00
Orbit: 502 x 524 km, 97.5° (Epoch: 21 October)

Date Brightness Start Highest point End Pass type
(mag) Time Alt. Az. Time Alt. Az. Time Alt. Az.
21 Oct ? 19:08:45 10° SW 19:11:08 16° W 19:13:33 10° NW visible
22 Oct ? 18:52:24 10° SSW 18:55:33 25° W 18:58:42 10° NW visible
23 Oct ? 06:26:32 10° NNE 06:29:56 34° E 06:33:20 10° SSE visible
23 Oct ? 18:36:27 10° S 18:39:59 41° W 18:43:32 10° NNW visible
24 Oct ? 06:11:27 10° NE 06:14:22 22° E 06:17:16 10° SSE visible
25 Oct ? 05:56:49 10° ENE 05:58:45 14° E 06:00:41 10° SE visible
27 Oct ? 19:09:41 10° SW 19:12:00 16° W 19:14:18 10° NW visible
28 Oct ? 18:53:18 10° SSW 18:56:24 25° W 18:59:29 10° NW visible
29 Oct ? 06:27:19 10° NNE 06:30:46 35° E 06:34:13 10° SSE visible
29 Oct ? 18:37:19 10° S 18:40:49 40° W 18:44:19 10° NNW visible
30 Oct ? 06:12:13 10° NE 06:15:11 22° E 06:18:09 10° SSE visible
30 Oct ? 18:21:35 10° S 18:25:16 68° W 18:28:57 10° NNW visible
